Regional Weather Roundup
Issued by NWS

Home | Current Version | Previous Version | Graphics & Text | Print | Product List | Glossary On
Versions: 1 2 3 4 5 6 7 8 9 10 11 12 13 14 15 16 17 18 19 20 21 22 23 24 25 26 27 28 29 30 31 32 33 34 35 36 37 38 39 40 41 42 43 44 45 46 47 48 49 50
000
ASUS43 KBIS 022210
RWRND

NORTH DAKOTA REGIONAL WEATHER ROUNDUP
NATIONAL WEATHER SERVICE BISMARCK ND
400 PM CST MON MAR 02 2015

NOTE: "FAIR" INDICATES FEW OR NO CLOUDS BELOW 12,000 FEET WITH NO
SIGNIFICANT WEATHER AND/OR OBSTRUCTIONS TO VISIBILITY.


NDZ001>003-009>011-017-022300-
NORTHWEST NORTH DAKOTA

CITY           SKY/WX    TMP DP  RH WIND       PRES   REMARKS
WILLISTON      MOSUNNY   40  19  43 W16       29.72S
MINOT          MOSUNNY   33  20  58 S12G23    29.73F
MINOT AFB      MOSUNNY   32  23  70 S14G22    29.72F
$$

NDZ018>021-031>035-040>046-022300-
SOUTHWEST NORTH DAKOTA

CITY           SKY/WX    TMP DP  RH WIND       PRES   REMARKS
BISMARCK       MOSUNNY   41  21  44 S16       29.79F
DICKINSON      MOSUNNY   43  12  28 W15       29.69F
GARRISON         N/A     35  23  61 SW16      29.73F
HETTINGER ARPT PTSUNNY   45  10  24 SW10      29.74F
$$

NDZ004>008-012>016-024-026-027-054-022300-
NORTHEAST NORTH DAKOTA

CITY           SKY/WX    TMP DP  RH WIND       PRES   REMARKS
GRAND FORKS    MOSUNNY   30  17  58 S22G31    29.97F WCI  17
GRND FRKS AFB  SUNNY     30  15  55 S30G36    29.94F WCI  15
DEVILS LAKE    SUNNY     28  19  69 S28       29.86F WCI  13
$$

NDZ022-023-025-028>030-036>039-047>053-022300-
SOUTHEAST NORTH DAKOTA

CITY           SKY/WX    TMP DP  RH WIND       PRES   REMARKS
FARGO          PTSUNNY   32  15  49 S25G39    30.01F WCI  19
JAMESTOWN      SUNNY     31  21  66 S26G36    29.88F WCI  17
$$



USA.gov is the U.S. government's official web portal to all federal, state and local government web resources and services.